Weather History for KIWD - February, 2013

Change the Weather History Date:

Tuesday, February 12, 2013

  Actual Average Record
Temperature  
Mean Temperature 20 °F -  
Max Temperature 24 °F - - ()
Min Temperature 17 °F - - ()
Degree Days  
Heating Degree Days 44    
Moisture  
Dew Point 15 °F    
Average Humidity 76    
Maximum Humidity 86    
Minimum Humidity 68    
Precipitation  
Precipitation 0.00 in - - ()
Sea Level Pressure  
Sea Level Pressure 29.79 in    
Wind  
Wind Speed 10 mph (SW)    
Max Wind Speed 16 mph    
Max Gust Speed 21 mph    
Visibility 10 miles    
Events      
T = Trace of Precipitation, MM = Missing Value Source: NWS Daily Summary

Daily Weather History Graph

Daily Weather History Graph

Search for Another Location

Airport or City:

Trip Planner

Search our weather history database for the weather conditions in past years. The results will help you decide how hot, cold, wet, or windy it might be!

Date:

Astronomy

Feb. 12, 2013 Rise Set
Actual Time 7:08 AM CST 5:21 PM CST
Civil Twilight 6:37 AM CST 5:53 PM CST
Nautical Twilight 6:01 AM CST 6:28 PM CST
Astronomical Twilight 5:26 AM CST 7:03 PM CST
Moon 7:53 AM CST (2/12) 8:37 PM CST (2/12)
Length of Visible Light 11h 15m
Length of Day
10h 13m
Waxing Crescent, 7% of the Moon is Illuminated
Feb 12
Waxing Crescent
Feb 17
First Quarter
Feb 25
Full
Mar 4
Last Quarter
Mar 11
New

Hourly Weather History & Observations

Time (CST) Temp. Windchill Dew Point Humidity Pressure Visibility Wind Dir Wind Speed Gust Speed Precip Events Conditions
12:15 AM 19.4 °F 8.6 °F 14.0 °F 80% 29.86 in 5.0 mi West 9.2 mph - N/A   Overcast
12:35 AM 19.4 °F 7.9 °F 15.8 °F 86% 29.86 in 8.0 mi West 10.4 mph - N/A   Overcast
12:55 AM 19.4 °F 7.9 °F 14.0 °F 80% 29.86 in 10.0 mi West 10.4 mph - N/A   Overcast
1:15 AM 19.4 °F 7.9 °F 14.0 °F 80% 29.86 in 10.0 mi West 10.4 mph - N/A   Overcast
1:35 AM 19.4 °F 7.9 °F 14.0 °F 80% 29.86 in 10.0 mi West 10.4 mph - N/A   Overcast
1:55 AM 19.4 °F 9.5 °F 14.0 °F 80% 29.85 in 10.0 mi West 8.1 mph - N/A   Overcast
2:15 AM 19.4 °F 8.6 °F 14.0 °F 80% 29.86 in 10.0 mi WSW 9.2 mph - N/A   Overcast
2:35 AM 19.4 °F 9.5 °F 14.0 °F 80% 29.86 in 10.0 mi West 8.1 mph - N/A   Overcast
2:55 AM 19.4 °F 8.6 °F 14.0 °F 80% 29.85 in 10.0 mi West 9.2 mph - N/A   Overcast
3:15 AM 19.4 °F 9.5 °F 14.0 °F 80% 29.85 in 10.0 mi West 8.1 mph - N/A   Overcast
3:35 AM 19.4 °F 9.5 °F 15.8 °F 86% 29.85 in 10.0 mi WSW 8.1 mph - N/A   Overcast
3:55 AM 19.4 °F 9.5 °F 14.0 °F 80% 29.86 in 10.0 mi WSW 8.1 mph - N/A   Overcast
4:15 AM 19.4 °F 9.5 °F 14.0 °F 80% 29.86 in 10.0 mi WSW 8.1 mph - N/A   Overcast
4:35 AM 19.4 °F 9.5 °F 14.0 °F 80% 29.86 in 10.0 mi SW 8.1 mph - N/A   Overcast
4:55 AM 19.4 °F 9.5 °F 14.0 °F 80% 29.87 in 10.0 mi WSW 8.1 mph - N/A   Overcast
5:15 AM 19.4 °F 8.6 °F 14.0 °F 80% 29.87 in 9.0 mi WSW 9.2 mph - N/A   Overcast
5:35 AM 19.4 °F 9.5 °F 14.0 °F 80% 29.88 in 9.0 mi WSW 8.1 mph - N/A   Overcast
5:55 AM 19.4 °F 8.6 °F 12.2 °F 74% 29.88 in 10.0 mi WSW 9.2 mph - N/A   Overcast
6:15 AM 19.4 °F 7.2 °F 12.2 °F 74% 29.88 in 10.0 mi WSW 11.5 mph - N/A   Overcast
6:35 AM 19.4 °F 8.6 °F 12.2 °F 74% 29.88 in 10.0 mi WSW 9.2 mph - N/A   Overcast
6:55 AM 17.6 °F 7.3 °F 12.2 °F 79% 29.88 in 10.0 mi WSW 8.1 mph - N/A   Overcast
7:15 AM 17.6 °F 6.4 °F 12.2 °F 79% 29.88 in 10.0 mi SW 9.2 mph - N/A   Overcast
7:35 AM 17.6 °F 6.4 °F 12.2 °F 79% 29.89 in 10.0 mi WSW 9.2 mph - N/A   Overcast
7:55 AM 17.6 °F 7.3 °F 12.2 °F 79% 29.88 in 10.0 mi WSW 8.1 mph - N/A   Overcast
8:35 AM 17.6 °F 7.3 °F 12.2 °F 79% 29.88 in 10.0 mi WSW 8.1 mph - N/A   Overcast
8:55 AM 17.6 °F 3.2 °F 10.4 °F 73% 29.87 in 10.0 mi WSW 15.0 mph - N/A   Overcast
9:15 AM 17.6 °F 3.2 °F 12.2 °F 79% 29.87 in 10.0 mi WSW 15.0 mph - N/A   Overcast
9:35 AM 17.6 °F 5.7 °F 10.4 °F 73% 29.86 in 10.0 mi WSW 10.4 mph - N/A   Overcast
9:55 AM 17.6 °F 8.2 °F 10.4 °F 73% 29.85 in 10.0 mi WSW 6.9 mph - N/A   Overcast
10:15 AM 17.6 °F 4.3 °F 12.2 °F 79% 29.85 in 9.0 mi SW 12.7 mph - N/A   Overcast
10:35 AM 17.6 °F 3.7 °F 10.4 °F 73% 29.85 in 10.0 mi SSW 13.8 mph 19.6 mph N/A   Overcast
10:55 AM 19.4 °F 5.0 °F 10.4 °F 68% 29.85 in 10.0 mi SW 16.1 mph - N/A   Overcast
11:15 AM 19.4 °F 7.9 °F 10.4 °F 68% 29.85 in 10.0 mi WSW 10.4 mph - N/A   Overcast
11:35 AM 19.4 °F 7.2 °F 10.4 °F 68% 29.84 in 10.0 mi SW 11.5 mph - N/A   Overcast
11:55 AM 19.4 °F 6.6 °F 12.2 °F 74% 29.83 in 10.0 mi WSW 12.7 mph - N/A   Overcast
12:15 PM 19.4 °F 7.2 °F 12.2 °F 74% 29.81 in 10.0 mi SSW 11.5 mph 18.4 mph N/A   Mostly Cloudy
12:35 PM 21.2 °F 10.9 °F 14.0 °F 74% 29.80 in 10.0 mi SSW 9.2 mph - N/A   Mostly Cloudy
12:55 PM 21.2 °F 8.9 °F 14.0 °F 74% 29.79 in 1.0 mi SSW 12.7 mph - N/A   Overcast
1:15 PM 23.0 °F 12.4 °F 15.8 °F 74% 29.78 in 3.0 mi SSW 10.4 mph - N/A   Overcast
1:35 PM 23.0 °F 11.1 °F 15.8 °F 74% 29.77 in 10.0 mi SSW 12.7 mph 17.3 mph N/A   Overcast
1:55 PM 24.8 °F 12.9 °F 15.8 °F 69% 29.76 in 10.0 mi SW 13.8 mph - N/A   Overcast
2:15 PM 24.8 °F 15.3 °F 15.8 °F 69% 29.75 in 10.0 mi South 9.2 mph 20.7 mph N/A   Overcast
2:35 PM 24.8 °F 14.0 °F 17.6 °F 74% 29.74 in 10.0 mi South 11.5 mph 17.3 mph N/A   Scattered Clouds
2:55 PM 24.8 °F 11.9 °F 17.6 °F 74% 29.74 in 10.0 mi South 16.1 mph 20.7 mph N/A   Scattered Clouds
3:15 PM 24.8 °F 12.9 °F 17.6 °F 74% 29.74 in 10.0 mi SSW 13.8 mph 20.7 mph N/A   Partly Cloudy
3:35 PM 24.8 °F 13.4 °F 15.8 °F 69% 29.73 in 10.0 mi SSW 12.7 mph 18.4 mph N/A   Scattered Clouds
3:55 PM 24.8 °F 14.6 °F 17.6 °F 74% 29.73 in 10.0 mi SSW 10.4 mph 20.7 mph N/A   Overcast
4:15 PM 24.8 °F 12.9 °F 17.6 °F 74% 29.73 in 10.0 mi SSW 13.8 mph - N/A   Overcast
4:35 PM - - - N/A% - 10.0 mi North - - N/A   Overcast
4:55 PM 24.8 °F 14.0 °F 17.6 °F 74% 29.72 in 10.0 mi SSW 11.5 mph - N/A   Scattered Clouds
5:15 PM 24.8 °F 14.0 °F 17.6 °F 74% 29.72 in 10.0 mi SSW 11.5 mph 18.4 mph N/A   Clear
5:35 PM 24.8 °F 15.3 °F 17.6 °F 74% 29.72 in 10.0 mi SSW 9.2 mph - N/A   Clear
5:55 PM 24.8 °F 15.3 °F 17.6 °F 74% 29.73 in 10.0 mi SW 9.2 mph - N/A   Clear
6:15 PM 24.8 °F 14.6 °F 17.6 °F 74% 29.73 in 10.0 mi SSW 10.4 mph - N/A   Clear
6:35 PM 24.8 °F 15.3 °F 17.6 °F 74% 29.72 in 10.0 mi SW 9.2 mph 18.4 mph N/A   Partly Cloudy
6:55 PM 24.8 °F 13.4 °F 19.4 °F 80% 29.72 in 10.0 mi SW 12.7 mph - N/A   Mostly Cloudy
7:15 PM 24.8 °F 14.0 °F 17.6 °F 74% 29.72 in 10.0 mi SW 11.5 mph - N/A   Mostly Cloudy
7:35 PM 24.8 °F 15.3 °F 17.6 °F 74% 29.72 in 10.0 mi SW 9.2 mph - N/A   Clear
7:55 PM 24.8 °F 15.3 °F 17.6 °F 74% 29.71 in 10.0 mi SW 9.2 mph - N/A   Clear
8:15 PM 23.0 °F 13.1 °F 17.6 °F 80% 29.70 in 10.0 mi SW 9.2 mph - N/A   Clear
8:35 PM 23.0 °F 13.1 °F 17.6 °F 80% 29.71 in 10.0 mi SW 9.2 mph - N/A   Clear
8:55 PM 23.0 °F 13.9 °F 15.8 °F 74% 29.70 in 10.0 mi SW 8.1 mph - N/A   Clear
9:15 PM 24.8 °F 14.6 °F 17.6 °F 74% 29.70 in 10.0 mi SW 10.4 mph - N/A   Clear
9:35 PM 24.8 °F 14.6 °F 17.6 °F 74% 29.69 in 10.0 mi SW 10.4 mph - N/A   Clear
9:55 PM 24.8 °F 15.3 °F 15.8 °F 69% 29.68 in 10.0 mi SW 9.2 mph - N/A   Clear
10:15 PM 24.8 °F 15.3 °F 17.6 °F 74% 29.68 in 10.0 mi SW 9.2 mph - N/A   Clear
10:35 PM 24.8 °F 15.3 °F 17.6 °F 74% 29.67 in 10.0 mi SSW 9.2 mph - N/A   Clear
10:55 PM 24.8 °F 16.9 °F 17.6 °F 74% 29.67 in 10.0 mi SW 6.9 mph - N/A   Mostly Cloudy
11:15 PM 24.8 °F 16.1 °F 17.6 °F 74% 29.66 in 10.0 mi SW 8.1 mph - N/A   Overcast
11:35 PM 24.8 °F 16.1 °F 17.6 °F 74% 29.65 in 10.0 mi SSW 8.1 mph - N/A   Overcast
11:55 PM 24.8 °F 14.6 °F 19.4 °F 80% 29.65 in 10.0 mi SW 10.4 mph - N/A   Overcast